915  
ASUS42 KMHX 010422  
RWRMHX  
WEATHER ROUNDUP FOR EASTERN NORTH CAROLINA  
NATIONAL WEATHER SERVICE NEWPORT/MOREHEAD CITY NC  
1200 AM EDT SAT NOV 01 2014  
 
NOTE: "FAIR" INDICATES FEW OR NO CLOUDS BELOW 12,000 FEET  
WITH NO SIGNIFICANT WEATHER AND/OR S TO VISIBILITY
 
 
NCZ015>017-031-032-045>047-102-103-010500-  
NORTH COAST  
 
CITY SKY/WX TMP DP RH WIND PRES REMARKS
 
EDENTON CLEAR 46 41 81 N5 29.76F  
ELIZABETH CITY CLOUDY 51 43 74 W3 29.77F  
KITTY HAWK MOCLDY 56 46 69 NW8 29.72F  
MANTEO MOCLDY 55 46 70 NW12 29.74F  
 

 
 
NCZ045>047-081-094-103-104-010500-  
CENTRAL COAST  
 
CITY SKY/WX TMP DP RH WIND PRES REMARKS
 
FRISCO CLOUDY 56 49 77 N8G17 29.73F  
SWANQUARTER N/A 50 N/A N/A NW1G7 29.71F  
 

 
 
NCZ095-097-098-100-101-010500-  
SOUTHERN COAST  
 
CITY SKY/WX TMP DP RH WIND PRES REMARKS
 
BEAUFORT CLEAR 52 48 86 N7 29.75F  
CEDAR ISLAND N/A 57 N/A N/A N16G22 29.79S  
JACKSONVILLE CLEAR 50 43 77 N5 29.76F  
PINEY ISLAND CLEAR 57 45 64 N9 29.75F  
WILMINGTON CLEAR 48 45 89 CALM 29.76F  
 

 
 
NCZ011>013-027>030-043-044-078>080-089-090>093-098-010500-  
COASTAL PLAIN  
 
CITY SKY/WX TMP DP RH WIND PRES REMARKS
 
AHOSKIE NOT AVBL  
CLINTON CLEAR 48 44 87 CALM 29.77S  
ELIZABETHTOWN CLEAR 49 43 78 CALM 29.76F  
GOLDSBORO CLEAR 47 46 97 E1 29.76S  
GREENVILLE CLEAR 45 41 87 CALM 29.80S  
HAVELOCK NOT AVBL  
KENANSVILLE CLEAR 41 41 97 CALM 29.77F  
KINSTON CLEAR 41 39 94 CALM 29.78S  
NEW BERN CLEAR 51 44 77 NE8 29.77F  
RICHLANDS CLEAR 43 39 87 CALM 29.76F  
ROCKY MOUNT CLEAR 44 40 85 CALM 29.78F  
WASHINGTON CLEAR 45 41 85 NE3 29.76F  
WHITEVILLE CLEAR 49 45 86 CALM 29.75F  
 

 
 
AMZ130-135-150-152-154-156-158-170-250-252-270-ANZ085-086-088-633-658-670-010500-  
MARINE OBSERVATIONS  
 
STATION/POSITION TIME TEMP WIND PRES WAVE SWELL
 
AIR SEA DIR/SP/G HT/PER HT/PER  
(UTC) (F) (DEG/KT/KT) (MB) (FT/S) (FT/S)  
CHESAPEAKE LIGHT 0400 56 360/ 18/ 19 1007.5  
64 E VA BEACH 0400 60 66 340/ 21/ 23 1005.1 5/ 6 3/ 7  
DUCK 0400 58 64 350/ 13/ 16 1006.3  
2 E DUCK NOT AVBL  
10 NE DUCK 0400 66 N/A 6/ 6  
OREGON INLET 0400 58 63 350/ 10/ 18 1006.3  
13E OREGON INLT 0400 68 N/A 7/ 7  
HATTERAS CG 0400 57 64 340/ 20/ 23 1007.0  
DIAMOND BUOY 0400 62 340/ 21/ 27 1005.3 5/ 6  
17 S OCRACOKE NOT AVBL  
CAPE LOOKOUT 0400 56 360/ 12/ 15 1007.1  
BEAUFORT LAB 0400 55 66 20/ 6/ 9 1006.6  
30 SE NEW RIVER 0400 61 73 30/ 14/ 17 1006.5 4/ 5 2/ 7  
5 SE WRIGHTSVLE 0400 58 71 80/ 10/ 14 N/A  
225 S CAPE HAT 0307 71 77 280/ 12/ 14 1005.7 4/ 8 3/ 8  
41 SE CHARLESTON 0400 66 76 270/ 4/ 8 1007.9 4/ 7 3/ 7  
 

 
 
CLICK HERE TO GO TO PREVIOUS BULLETINS.

The Nexlab NC Page Main Text Page